Date String (YYYY-MM-DD hh:mm:ss) UTC,Instrument flags,Ambient pressure (hPa),Sample flow (lpm),Bypass flow (lpm),Sample temperature (°C),Ambient temperature (°C),ASC tube jacket temperature (°C),LED temperature (°C),Box temperature (°C),Sample RH (%),Span deviation,Mass concentration (μg/m³),Mass concentration (μg/m³),Mass concentration (μg/m³)
DateTimeUTC,F1_M11,P_M11,Q1_M11,Q2_M11,T1_M11,T2_M11,T3_M11,T4_M11,T5_M11,U1_M11,ZSPAN_M11,X0_M11,X2_M11,X1_M11
2022-03-15 19:00:00,,0826.5,5.01,0.00,26.4,25.7,00.0,35.2,28.3,07.3,0000.0,0007.90,0003.69,0003.06
2022-03-15 19:01:00,,0826.5,5.01,0.00,26.4,25.8,00.0,35.2,28.3,06.8,0000.0,0008.20,0003.66,0003.06
2022-03-15 19:02:00,,0826.5,4.99,0.00,26.4,25.8,00.0,35.2,28.3,06.7,0000.0,0008.04,0003.64,0003.03
2022-03-15 19:03:00,,0826.5,5.00,0.00,26.4,25.8,00.0,35.2,28.3,06.0,0000.0,0007.90,0003.61,0003.03
2022-03-15 19:04:00,,0826.5,5.00,0.00,26.5,25.8,00.0,35.2,28.3,06.0,0000.0,0007.88,0003.61,0003.04
2022-03-15 19:05:00,,0826.5,5.00,0.00,26.5,25.8,00.0,35.3,28.3,06.5,0000.0,0008.45,0003.63,0003.07
2022-03-15 19:06:00,,0826.4,5.01,0.00,26.5,25.9,00.0,35.3,28.3,06.3,0000.0,0009.59,0003.63,0003.06
2022-03-15 19:07:00,,0826.5,5.00,0.00,26.5,25.9,00.0,35.3,28.4,06.6,0000.0,0009.84,0003.64,0003.03
2022-03-15 19:08:00,,0826.5,5.00,0.00,26.5,25.9,00.0,35.3,28.4,06.3,0000.0,0009.79,0003.64,0003.01
2022-03-15 19:09:00,,0826.5,4.98,0.00,26.6,25.9,00.0,35.3,28.5,05.6,0000.0,0009.52,0003.59,0002.93
2022-03-15 19:10:00,,0826.4,5.00,0.00,26.6,25.9,00.0,35.4,28.5,05.6,0000.0,0009.55,0003.52,0002.81
2022-03-15 19:11:00,,0826.4,5.00,0.00,26.6,26.0,00.0,35.4,28.5,05.5,0000.0,0009.91,0003.43,0002.70
2022-03-15 19:12:00,,0826.4,5.01,0.00,26.6,26.0,00.0,35.4,28.5,05.5,0000.0,0009.56,0003.41,0002.66
2022-03-15 19:13:00,,0826.4,5.01,0.00,26.6,26.0,00.0,35.4,28.5,06.0,0000.0,0009.54,0003.41,0002.64
2022-03-15 19:14:00,,0826.3,5.00,0.00,26.7,26.1,00.0,35.4,28.5,05.5,0000.0,0009.53,0003.42,0002.63
2022-03-15 19:15:00,,0826.3,5.00,0.00,26.7,26.1,00.0,35.4,28.6,05.6,0000.0,0009.45,0003.40,0002.61
2022-03-15 19:16:00,,0826.2,4.99,0.00,26.7,26.1,00.0,35.5,28.6,05.4,0000.0,0009.19,0003.37,0002.59
2022-03-15 19:17:00,,0826.2,5.00,0.00,26.7,26.1,00.0,35.5,28.6,03.6,0000.0,0008.70,0003.32,0002.52
2022-03-15 19:18:00,,0826.1,4.99,0.00,26.7,26.1,00.0,35.5,28.6,03.1,0000.0,0008.15,0003.19,0002.36
2022-03-15 19:19:00,,0826.1,5.00,0.00,26.8,26.1,00.0,35.5,28.6,02.9,0000.0,0007.94,0003.01,0002.19
2022-03-15 19:20:00,,0826.0,4.98,0.00,26.8,26.1,00.0,35.5,28.6,03.0,0000.0,0007.69,0002.74,0001.99
2022-03-15 19:21:00,,0825.9,5.00,0.00,26.8,26.1,00.0,35.5,28.6,03.0,0000.0,0007.42,0002.51,0001.83
2022-03-15 19:22:00,,0826.0,5.00,0.00,26.8,26.1,00.0,35.6,28.6,03.0,0000.0,0006.30,0002.37,0001.67
2022-03-15 19:23:00,,0826.0,5.00,0.00,26.8,26.1,00.0,35.6,28.7,03.4,0000.0,0005.77,0002.18,0001.51
2022-03-15 19:24:00,,0826.0,5.00,0.00,26.8,26.1,00.0,35.6,28.7,03.0,0000.0,0005.33,0001.99,0001.39
2022-03-15 19:25:00,,0826.0,5.00,0.00,26.9,26.1,00.0,35.6,28.7,02.8,0000.0,0004.87,0001.78,0001.24
2022-03-15 19:26:00,,0826.0,5.00,0.00,26.9,26.2,00.0,35.6,28.7,02.8,0000.0,0004.40,0001.52,0001.05
2022-03-15 19:27:00,,0825.9,5.00,0.00,26.9,26.2,00.0,35.7,28.7,02.9,0000.0,0003.95,0001.35,0000.88
2022-03-15 19:28:00,,0825.9,5.00,0.00,26.9,26.2,00.0,35.7,28.7,02.9,0000.0,0002.42,0001.17,0000.74
2022-03-15 19:29:00,,0825.9,5.00,0.00,26.9,26.2,00.0,35.7,28.7,02.8,0000.0,0002.23,0001.15,0000.72
2022-03-15 19:30:00,,0825.9,5.01,0.00,26.9,26.2,00.0,35.7,28.7,02.8,0000.0,0002.31,0001.14,0000.71
2022-03-15 19:31:00,,0825.8,4.99,0.00,26.9,26.2,00.0,35.7,28.8,03.0,0000.0,0002.32,0001.14,0000.72
2022-03-15 19:32:00,,0825.8,5.00,0.00,26.9,26.2,00.0,35.7,28.8,03.4,0000.0,0002.32,0001.15,0000.71
2022-03-15 19:33:00,,0825.8,5.01,0.00,27.0,26.3,00.0,35.7,28.8,03.3,0000.0,0002.39,0001.12,0000.70
2022-03-15 19:34:00,,0825.7,5.00,0.00,27.0,26.3,00.0,35.8,28.8,03.0,0000.0,0002.44,0001.12,0000.69
2022-03-15 19:35:00,,0825.6,4.99,0.00,27.0,26.3,00.0,35.8,28.8,02.9,0000.0,0002.73,0001.08,0000.65
2022-03-15 19:36:00,,0825.6,5.01,0.00,27.0,26.3,00.0,35.8,28.8,03.0,0000.0,0002.72,0001.04,0000.64
2022-03-15 19:37:00,,0825.7,5.01,0.00,27.0,26.3,00.0,35.8,28.8,02.8,0000.0,0002.77,0001.04,0000.64
2022-03-15 19:38:00,,0825.6,5.00,0.00,27.0,26.3,00.0,35.8,28.8,02.9,0000.0,0003.28,0001.02,0000.63
2022-03-15 19:39:00,,0825.5,4.99,0.00,27.0,26.3,00.0,35.8,28.8,02.9,0000.0,0003.87,0001.04,0000.63
2022-03-15 19:40:00,,0825.6,5.00,0.00,27.0,26.2,00.0,35.8,28.8,02.8,0000.0,0004.02,0001.09,0000.64
2022-03-15 19:41:00,,0825.5,5.00,0.00,27.0,26.2,00.0,35.9,28.8,02.5,0000.0,0004.07,0001.14,0000.64
2022-03-15 19:42:00,,0825.6,5.00,0.00,27.0,26.2,00.0,35.9,28.8,02.6,0000.0,0004.13,0001.17,0000.64
2022-03-15 19:43:00,,0825.5,5.01,0.00,27.0,26.2,00.0,35.9,28.8,02.8,0000.0,0004.15,0001.16,0000.64
2022-03-15 19:44:00,,0825.5,5.00,0.00,27.0,26.2,00.0,35.9,28.8,02.7,0000.0,0004.18,0001.19,0000.64
2022-03-15 19:45:00,,0825.4,5.00,0.00,27.0,26.2,00.0,35.9,28.8,02.9,0000.0,0004.33,0001.19,0000.64
2022-03-15 19:46:00,,0825.5,5.00,0.00,27.0,26.2,00.0,35.9,28.8,02.8,0000.0,0004.20,0001.24,0000.64
2022-03-15 19:47:00,,0825.4,5.00,0.00,27.0,26.3,00.0,35.9,28.8,03.1,0000.0,0004.21,0001.28,0000.64
2022-03-15 19:48:00,,0825.4,5.00,0.00,27.0,26.3,00.0,35.9,28.9,02.8,0000.0,0004.62,0001.32,0000.65
2022-03-15 19:49:00,,0825.4,5.00,0.00,27.0,26.3,00.0,35.9,28.8,02.8,0000.0,0004.23,0001.30,0000.64
2022-03-15 19:50:00,,0825.4,5.00,0.00,27.0,26.3,00.0,35.9,28.8,03.0,0000.0,0003.63,0001.29,0000.63
2022-03-15 19:51:00,,0825.3,5.00,0.00,27.0,26.3,00.0,35.9,28.8,02.9,0000.0,0004.14,0001.27,0000.63
2022-03-15 19:52:00,,0825.3,5.00,0.00,27.0,26.3,00.0,35.9,28.8,03.1,0000.0,0004.07,0001.26,0000.63
2022-03-15 19:53:00,,0825.3,5.00,0.00,27.0,26.3,00.0,35.9,28.9,02.9,0000.0,0004.00,0001.23,0000.61
2022-03-15 19:54:00,,0825.3,5.01,0.00,27.0,26.3,00.0,35.9,28.8,02.9,0000.0,0004.00,0001.21,0000.61
2022-03-15 19:55:00,,0825.3,5.00,0.00,27.0,26.3,00.0,35.9,28.8,02.7,0000.0,0003.89,0001.16,0000.60
2022-03-15 19:56:00,,0825.3,5.00,0.00,27.0,26.3,00.0,36.0,28.9,02.7,0000.0,0003.51,0001.12,0000.59
2022-03-15 19:57:00,,0825.3,5.00,0.00,27.1,26.3,00.0,36.0,28.9,03.0,0000.0,0003.42,0001.12,0000.58
2022-03-15 19:58:00,,0825.3,5.00,0.00,27.1,26.3,00.0,36.0,28.9,03.0,0000.0,0003.46,0001.14,0000.58
2022-03-15 19:59:00,,0825.3,4.99,0.00,27.1,26.3,00.0,36.0,28.9,02.8,0000.0,0002.98,0001.10,0000.58
